Theta_e
330 325 323 322 328 324 325 326 322 326 329 328 328 329 330 332 335 336 332 334 331 334 335 335 335 336 335 335 336 336 336 335 334 333 331 330 330 330 329 330 330 330 330 331 329 327 326 327 326
329 324 322 319 325 328 326 320 323 324 332 331 332 333 334 338 334 331 334 331 332 333 334 335 334 334 334 335 336 335 333 334 332 331 330 329 329 329 329 329 329 329 329 330 327 327 326 326 325
327 322 324 324 319 325 325 321 321 328 330 327 335 332 334 336 333 332 332 331 334 332 330 333 333 335 334 335 335 334 333 333 332 331 329 329 328 328 328 329 328 329 328 328 327 326 325 324 324
325 321 321 329 331 326 320 323 326 330 325 328 331 336 332 332 332 334 333 334 336 334 330 332 333 335 335 334 333 332 331 330 331 332 331 329 329 328 327 328 328 327 327 328 326 326 325 324 324
321 320 329 330 329 324 319 323 323 326 324 330 329 333 335 333 334 334 332 331 334 333 329 330 332 333 333 331 331 329 328 330 331 330 330 328 328 327 327 327 327 326 326 327 327 325 324 321 319
326 320 331 332 330 321 324 322 320 321 327 331 331 333 333 333 335 332 331 330 333 331 329 328 330 331 330 331 330 329 329 330 331 328 327 326 326 327 327 327 326 326 326 326 326 323 318 316 317
325 325 328 327 328 322 325 318 320 323 329 331 328 333 332 334 334 331 331 331 333 330 328 328 330 330 329 330 330 328 328 329 328 329 328 326 325 324 325 325 325 326 326 325 325 321 318 316 318
321 323 325 325 328 326 321 319 318 324 328 327 327 332 334 333 334 331 332 333 332 330 328 329 330 329 328 328 328 327 326 327 327 327 327 326 325 323 319 320 322 324 325 322 321 320 319 317 317
319 327 330 328 325 326 318 320 317 320 329 329 329 326 327 334 333 333 334 333 332 329 328 328 328 328 327 327 327 326 326 326 326 325 324 326 324 323 319 318 317 316 320 320 320 320 319 319 318
327 327 329 325 322 322 319 318 318 327 330 330 331 330 331 334 333 333 332 332 331 331 328 327 327 327 325 327 326 326 326 326 326 325 322 325 325 323 319 317 316 316 319 319 319 320 319 319 319
326 331 324 324 320 316 318 317 317 325 330 328 330 330 329 332 332 332 331 330 330 332 329 327 327 326 325 325 325 325 326 325 325 324 323 323 323 323 320 317 316 316 317 318 319 319 319 319 319
332 329 327 326 328 319 318 316 319 323 324 321 323 328 330 332 331 331 330 329 331 331 329 327 327 327 325 324 323 324 324 324 323 323 322 322 322 321 320 318 316 316 316 317 317 318 319 319 320
332 331 331 330 328 324 313 315 318 320 320 320 320 329 330 331 331 331 331 331 332 330 328 326 327 327 325 325 323 322 319 320 321 321 320 320 321 320 319 318 317 316 316 318 318 318 319 319 319
331 332 331 329 329 330 326 316 314 316 317 324 327 329 330 331 331 330 331 330 330 330 328 326 326 327 326 325 323 321 319 318 319 319 316 317 319 319 318 318 318 317 315 316 318 318 318 317 318
329 327 326 324 326 326 317 317 316 313 322 323 328 328 328 329 329 330 331 331 331 330 330 328 326 327 328 326 325 323 320 318 319 318 316 318 319 320 320 318 316 316 315 314 317 318 318 319 317
327 327 328 328 329 326 317 327 317 313 322 322 325 327 328 327 328 330 331 332 332 331 331 329 328 326 328 327 326 324 322 320 318 318 318 318 320 321 322 321 319 314 315 316 317 319 319 318 318
328 324 326 326 325 324 319 323 318 313 319 320 323 326 327 328 327 329 331 332 332 332 332 331 329 328 327 327 326 325 324 322 320 318 318 318 320 322 323 323 321 319 319 320 320 319 319 319 319
330 328 324 325 325 326 325 328 325 317 313 318 316 322 325 327 328 329 330 331 331 332 332 332 331 330 329 327 327 326 326 325 323 320 317 317 318 320 322 323 323 323 321 322 322 321 320 319 318
324 327 325 325 320 326 328 328 325 318 315 314 312 315 321 325 326 327 329 330 331 331 331 332 332 331 330 328 327 327 327 327 326 325 320 317 318 320 322 323 323 323 323 323 323 323 322 321 319
325 327 326 324 322 324 328 329 326 321 318 318 318 315 312 318 321 324 327 328 329 331 331 331 332 332 331 330 329 327 327 328 328 327 326 324 322 321 323 324 324 323 323 323 323 324 323 322 321
326 327 326 326 320 319 321 325 324 321 316 316 316 317 315 313 314 316 322 326 327 328 329 330 331 331 331 331 329 328 327 327 327 327 327 327 327 325 324 325 325 325 324 323 323 323 324 322 321
328 324 325 324 327 330 324 325 321 323 323 320 319 316 317 315 313 313 312 319 326 327 328 328 329 330 330 330 330 329 328 327 327 327 328 328 328 328 327 326 326 326 325 324 324 323 322 322 321
324 322 326 326 327 326 323 326 325 321 323 323 322 319 318 317 316 315 314 313 316 320 325 327 328 328 328 329 330 329 329 329 328 328 328 328 328 328 328 327 327 327 326 325 325 324 323 322 321
321 325 325 325 327 331 326 327 325 324 322 323 322 322 321 317 316 316 316 315 314 317 319 322 327 327 327 327 328 329 329 329 328 328 328 328 328 328 327 327 327 326 326 326 326 325 324 323 322
323 325 329 329 328 332 325 324 327 318 317 321 322 322 322 317 316 317 314 312 313 315 317 320 324 326 327 327 327 328 328 328 328 328 327 326 327 327 327 327 326 326 326 325 324 323 323 323 321
324 326 326 329 327 326 318 327 325 319 319 315 316 319 316 313 314 314 313 313 313 314 315 319 323 324 325 326 327 327 327 328 328 327 327 327 327 327 327 327 326 326 326 325 325 324 324 323 322
324 326 323 317 303 316 318 319 317 317 316 315 318 312 312 312 310 308 308 311 312 312 313 316 320 322 323 325 325 326 327 327 327 328 327 327 327 327 327 326 326 326 326 326 325 324 324 324 323
322 321 326 324 327 326 319 321 321 318 320 317 316 316 316 314 310 307 304 306 309 311 313 314 316 319 320 322 323 324 325 326 327 326 327 326 326 326 326 326 325 325 326 325 325 325 325 324 324
321 325 323 323 322 326 324 321 313 317 316 318 319 318 317 316 314 312 305 305 308 310 311 312 314 317 319 321 322 323 324 324 325 325 325 325 325 325 325 325 325 324 324 323 323 322 323 323 323
313 311 321 326 327 323 321 321 312 315 316 317 318 318 318 314 311 306 303 303 305 307 309 311 314 316 317 319 321 322 323 323 324 324 325 325 325 324 323 323 322 321 322 322 321 322 322 321 322
Wind_Speed
24 19 7 5 4 4 1 2 1 3 2 1 2 3 2 3 2 1 6 12 22 19 17 14 13 14 14 15 17 17 17 16 15 16 16 17 16 16 16 16 17 17 16 16 17 18 18 19 19
22 14 4 2 4 3 3 2 4 4 3 6 4 2 1 1 1 3 12 17 20 20 17 15 13 13 14 14 16 15 14 17 16 16 16 17 16 15 16 17 16 15 15 15 17 17 18 18 18
15 10 3 4 3 1 2 4 3 2 5 1 3 2 2 2 1 14 6 25 21 19 16 15 14 14 15 15 15 14 14 15 16 16 16 16 16 16 15 16 15 15 15 16 16 16 17 17 18
11 7 3 3 1 2 2 1 4 6 2 1 2 2 1 4 8 12 15 25 21 16 15 15 15 14 16 14 13 13 13 14 14 15 15 15 14 15 15 14 15 14 15 15 16 15 17 17 18
6 3 4 3 2 3 3 1 6 5 3 3 2 3 1 1 5 12 26 26 19 16 14 15 15 15 14 13 14 14 13 14 14 14 14 14 14 15 14 14 14 13 14 15 15 14 16 17 18
4 2 3 1 4 3 4 3 4 3 3 3 3 5 3 2 12 18 29 24 18 16 15 15 14 14 13 13 15 15 12 13 14 11 10 11 13 13 13 13 13 13 13 13 14 14 16 16 16
3 3 2 3 3 5 2 5 3 5 4 4 5 5 1 6 13 24 26 21 18 16 15 15 16 15 13 13 13 13 12 13 13 13 11 9 9 11 12 13 12 12 12 13 13 13 14 14 14
3 3 3 3 2 4 3 5 1 5 5 2 4 4 3 10 18 24 22 21 19 17 16 17 17 15 14 14 14 13 13 12 12 11 11 7 7 8 10 11 11 11 12 12 12 12 12 12 11
3 1 2 3 5 4 3 4 2 0 4 2 5 3 2 18 24 23 21 19 19 18 18 18 17 16 14 16 17 17 14 14 12 10 11 12 10 8 9 9 10 11 12 11 10 10 10 9 9
4 0 5 1 1 3 2 5 5 4 3 4 3 3 5 24 27 22 20 19 22 20 20 19 19 17 16 18 18 19 17 16 13 11 14 14 10 8 9 9 9 10 11 10 9 8 7 7 6
3 5 1 3 2 2 4 3 6 5 3 8 10 8 14 20 24 23 22 22 23 23 22 22 20 19 18 19 19 21 20 17 14 12 11 12 11 9 9 9 9 10 10 9 8 6 4 4 5
5 5 4 5 7 6 5 4 4 7 6 2 8 13 18 20 23 24 24 22 24 26 25 23 22 21 20 19 19 19 19 19 17 16 14 13 11 10 10 9 9 9 10 9 8 6 5 5 5
5 4 4 5 3 5 4 8 6 8 9 4 6 13 16 19 22 23 21 27 28 28 27 25 24 24 22 21 19 19 18 19 17 17 16 16 14 11 10 11 10 9 9 9 8 7 7 7 8
9 7 5 3 4 4 3 6 3 6 5 3 6 10 12 18 23 18 23 27 29 29 28 25 26 25 24 23 22 20 19 18 18 17 16 16 15 13 12 12 11 11 9 9 8 7 8 8 10
6 4 6 7 6 3 3 8 8 7 3 6 8 6 7 13 19 24 28 28 33 31 28 27 26 26 26 25 23 21 20 20 20 19 18 17 17 15 13 12 12 11 11 12 12 11 12 11 11
4 2 6 4 10 2 5 11 7 6 6 9 8 7 8 11 19 24 28 32 31 31 30 28 27 27 28 28 26 24 22 22 22 20 20 20 19 17 15 15 14 13 13 14 14 14 13 14 14
5 4 6 3 4 6 5 9 7 4 7 8 8 8 9 9 14 25 31 32 33 32 30 30 30 29 30 29 28 25 24 24 24 23 22 23 22 20 18 17 16 15 16 16 15 15 16 16 16
7 7 4 5 2 7 8 17 16 6 5 10 8 7 8 11 18 24 30 32 32 32 31 31 31 31 30 30 29 28 26 26 25 25 25 24 24 23 22 21 19 18 19 19 19 19 18 19 18
7 5 7 4 5 4 9 17 16 7 6 9 10 10 11 13 18 20 27 32 31 31 32 34 34 35 33 33 31 30 31 30 29 29 28 27 27 25 25 25 23 23 25 24 22 22 22 21 19
2 5 4 1 3 5 5 17 15 9 8 13 14 12 12 11 9 14 24 28 33 37 38 37 38 37 37 36 35 29 28 32 33 31 29 29 29 29 28 28 28 28 28 28 27 25 23 22 22
13 10 4 4 2 2 4 17 15 12 9 10 10 13 12 15 16 12 18 29 31 34 39 41 42 41 40 39 35 31 24 23 25 31 34 34 32 32 31 31 32 31 30 32 30 29 28 23 21
18 13 5 5 5 7 8 11 14 8 17 15 16 14 18 14 13 12 18 22 32 39 36 39 40 42 43 40 36 35 30 27 30 31 33 33 33 34 34 34 34 34 34 33 34 32 32 30 23
10 6 13 14 7 2 5 4 11 8 14 13 14 17 18 17 17 17 20 29 39 38 39 41 40 40 40 41 42 39 34 35 29 31 32 31 32 32 33 33 35 36 36 37 36 36 36 35 29
6 5 4 2 10 13 22 14 18 14 8 12 19 19 15 14 16 16 26 31 31 35 37 38 37 40 39 41 42 39 37 34 26 32 33 34 33 32 31 29 30 32 34 36 38 38 38 37 35
9 16 8 8 7 5 15 9 26 5 9 15 19 21 20 12 13 17 16 20 26 34 36 37 37 38 41 41 41 42 42 38 37 35 34 29 32 32 32 28 29 30 31 31 33 33 33 34 34
23 15 4 11 5 20 8 13 12 13 18 10 16 17 11 8 11 11 12 20 26 36 39 39 37 38 39 40 41 42 40 38 38 33 34 35 34 33 29 26 25 25 25 26 27 29 30 31 33
13 19 27 2 2 2 5 11 9 5 6 8 19 8 14 16 12 13 13 23 25 29 36 39 38 38 39 40 39 38 39 38 39 39 35 34 32 29 27 25 24 24 24 24 25 28 29 29 31
24 11 12 10 9 11 5 18 16 12 20 11 12 18 20 19 11 11 10 20 27 30 34 37 40 41 41 38 36 36 36 37 37 34 33 31 28 26 24 24 24 23 23 23 24 26 27 28 31
14 14 15 13 14 12 18 17 9 16 15 19 22 21 18 16 15 15 9 16 21 25 29 33 38 39 35 33 32 32 32 31 31 31 29 27 24 23 23 21 21 22 22 22 23 24 26 26 26
5 4 21 13 15 18 22 23 1 15 22 21 21 24 16 8 8 5 5 12 18 23 27 32 35 35 34 32 30 28 26 24 24 25 24 22 22 19 19 20 21 21 20 20 21 22 23 23 27
Wind_Direction
344 345 353 35 48 63 41 218 147 142 161 174 95 139 193 73 150 184 152 160 156 151 142 143 144 140 137 136 131 125 119 112 106 105 102 101 103 99 100 103 103 97 88 90 93 87 85 87 86
344 347 32 69 73 38 288 265 196 176 132 123 90 86 94 125 113 122 138 159 160 155 150 150 151 150 144 139 136 130 127 122 114 110 107 103 102 102 104 107 106 95 89 95 90 90 89 91 89
344 356 71 82 96 155 244 219 159 104 136 57 106 25 138 171 175 160 156 159 161 156 157 157 157 155 150 146 142 135 131 129 122 116 111 110 109 106 109 113 109 98 93 96 92 89 91 92 91
353 17 41 76 6 264 219 200 142 123 285 62 116 104 300 242 176 177 166 161 160 158 158 158 157 157 155 153 149 142 137 131 130 121 117 111 111 112 107 112 111 104 97 98 94 92 96 96 96
18 59 43 46 304 276 269 219 155 152 150 143 165 186 178 154 176 175 166 167 165 161 162 164 165 170 169 163 151 136 136 137 139 125 119 113 111 112 111 113 115 111 101 101 101 99 101 101 99
31 92 68 337 284 296 294 159 148 145 143 153 140 147 187 219 167 167 166 171 171 168 167 169 171 170 166 162 153 137 143 141 142 123 114 109 107 107 108 112 116 117 108 107 108 101 100 101 102
85 61 192 184 267 318 239 138 193 171 171 233 157 146 213 176 180 165 168 173 174 173 173 169 167 167 163 159 159 152 160 144 139 137 121 104 104 108 114 117 116 122 117 107 111 106 101 102 104
91 89 165 225 185 270 188 175 226 166 221 81 173 194 204 194 175 171 173 174 177 175 176 173 171 169 168 167 161 163 160 169 164 159 147 136 124 112 115 116 116 120 122 116 111 109 107 106 109
132 77 210 220 152 248 140 196 182 118 131 239 192 164 153 166 167 172 172 174 180 179 180 179 179 175 178 170 164 163 162 166 168 175 154 158 151 132 126 123 125 130 137 131 122 115 113 115 114
93 190 214 247 204 282 237 213 187 174 157 234 241 198 153 161 163 169 176 177 185 187 185 185 183 180 175 172 172 176 175 183 188 188 168 167 173 154 151 144 139 140 147 148 140 129 120 127 137
175 163 307 293 352 342 293 253 180 156 214 214 207 170 168 167 175 181 186 187 186 192 190 188 188 187 183 180 182 185 192 196 195 195 190 183 187 182 168 161 159 161 161 162 159 155 158 166 171
139 179 287 323 334 354 310 306 223 203 225 284 215 164 168 181 186 188 190 189 193 194 196 192 191 193 191 189 189 191 197 202 202 199 201 200 194 188 185 183 180 178 179 180 183 194 207 214 216
184 201 160 280 312 316 293 249 244 238 245 344 150 159 178 188 193 195 198 201 200 196 199 199 196 195 195 194 196 201 202 202 200 201 205 205 206 204 200 199 200 199 199 201 207 218 228 234 234
188 183 179 242 298 262 256 277 172 262 190 164 174 189 186 190 193 190 197 203 205 203 203 203 202 202 201 202 205 207 208 204 206 208 208 209 208 208 211 214 215 214 216 219 232 241 241 240 243
128 194 220 206 168 287 7 280 230 245 182 207 211 201 199 202 189 196 201 203 209 211 208 209 206 207 209 209 210 212 217 214 213 213 213 212 211 216 219 223 225 223 225 229 239 248 249 249 250
142 111 239 174 130 272 152 261 288 235 179 234 223 208 206 211 212 206 209 211 214 215 212 212 213 212 213 216 216 216 219 223 224 222 221 219 220 222 227 231 231 228 231 236 244 252 256 257 259
203 202 195 270 190 120 118 285 268 205 192 238 245 223 218 222 227 220 217 217 219 219 217 216 217 218 218 219 221 222 224 228 230 230 229 227 227 230 234 237 237 235 238 243 251 254 257 261 262
189 213 175 192 157 181 166 247 266 270 224 241 248 249 228 227 227 222 220 222 223 223 223 223 221 223 223 223 225 227 228 232 234 234 235 234 233 234 238 244 245 244 246 249 250 253 256 260 263
162 175 202 171 154 139 218 253 262 234 220 253 242 241 235 233 243 231 228 225 225 225 226 225 223 225 223 221 222 227 227 230 234 234 235 237 237 238 241 247 248 245 247 249 251 254 255 257 260
267 189 180 258 140 196 193 258 255 253 237 234 236 237 234 239 235 224 226 224 222 224 224 225 227 227 226 226 227 225 231 236 239 240 241 241 242 241 242 246 248 247 247 250 250 250 253 258 256
235 218 168 169 135 273 36 272 254 255 244 245 239 242 235 223 233 231 215 218 221 221 225 226 228 227 229 228 225 229 231 237 240 241 242 243 244 245 246 248 250 253 253 253 254 253 250 248 256
233 212 195 152 166 235 181 274 242 225 239 230 236 225 235 224 228 228 214 212 220 228 226 230 228 226 228 225 220 220 217 223 231 239 244 247 247 247 249 250 252 253 255 256 258 259 256 252 246
228 165 206 225 236 275 207 272 274 184 235 244 245 234 231 222 217 222 218 218 226 229 230 232 228 226 224 222 222 220 220 230 230 240 249 250 253 252 252 252 254 254 255 257 258 260 257 254 246
148 150 149 151 220 234 228 219 258 234 203 242 249 251 235 211 219 224 221 223 224 228 230 228 224 225 222 222 222 218 221 224 224 233 239 246 250 254 254 255 255 257 259 260 263 263 262 260 256
191 211 220 237 228 232 206 199 233 254 204 215 233 244 247 209 210 221 212 208 214 222 224 225 223 220 221 222 222 222 226 228 230 233 236 234 247 251 255 256 257 259 264 266 266 264 264 262 253
211 203 198 200 198 229 150 224 234 229 227 211 231 241 263 230 222 224 215 211 214 223 223 219 215 217 221 222 224 227 226 227 233 235 239 247 250 257 264 267 266 267 267 267 267 265 265 264 260
205 211 221 19 58 343 179 267 275 206 253 256 244 250 251 254 236 222 215 221 220 220 222 218 214 216 220 221 224 224 228 227 233 240 242 246 254 260 266 268 270 270 269 268 267 265 265 265 266
216 194 203 218 207 230 232 239 235 201 218 227 240 243 245 245 243 238 216 221 227 231 230 225 220 218 221 222 224 227 232 234 236 238 245 248 256 260 262 263 266 270 271 271 270 270 273 270 271
214 233 215 221 212 235 246 249 196 211 209 219 225 240 247 241 239 247 233 231 228 227 225 223 217 215 216 217 222 225 230 233 237 240 245 248 252 254 257 261 263 263 266 270 268 270 269 270 271
241 236 252 210 209 225 230 244 166 215 199 210 217 226 241 245 262 237 210 220 208 211 214 211 209 210 212 213 216 220 225 227 228 231 235 239 243 245 247 249 252 255 258 261 265 266 265 267 267